Location: Unspecified
(0.0000°N, 0.0000°E)
Time: 18:35:44
(UTC+00:00)

Vanguard 2 Rocket - Pass Details

Date: 20 January 2020
Orbit: 554 x 3327 km, 32.9° (Epoch: 20 February)

Event Time Altitude Azimuth Distance (km) Brightness Sun altitude
Rises 19:37:19 0° 239° (WSW) 6,967 12.9 -20.2°
Reaches altitude 10° 19:49:17 10° 205° (SSW) 5,146 11.3 -23.0°
Maximum altitude 19:51:37 10° 196° (SSW) 4,902 11.1 -23.5°
Drops below altitude 10° 19:53:48 10° 186° (S) 4,736 10.9 -24.0°
Sets 20:02:02 0° 149° (SSE) 4,853 10.5 -25.9°
